Theta_e
298 291 288 292 295 293 291 290 288 291 296 293 292 291 294 298 296 297 298 297 299 302 306 306 307 308 308 307 308 312 319 321 321 322 325 326 325 327 327 329 329 328 327 327
292 286 292 295 295 294 292 289 287 292 295 293 291 291 296 298 298 299 299 300 300 301 302 304 305 305 305 306 307 308 313 319 320 321 322 325 326 327 329 329 328 328 328 327
287 287 294 293 291 292 291 289 288 289 292 292 288 286 287 291 293 296 298 300 301 300 301 302 302 303 303 302 304 306 309 315 319 321 320 321 322 321 323 325 326 327 327 327
290 293 292 290 289 291 285 292 292 292 288 282 289 279 286 289 290 292 295 295 295 296 297 297 298 298 300 302 303 304 306 310 317 319 319 319 319 319 322 324 325 325 326 326
286 290 290 289 290 293 288 293 291 290 287 285 283 283 284 287 288 291 292 293 294 294 296 296 297 298 298 299 300 305 307 308 315 317 319 318 318 319 320 320 320 322 323 325
288 292 292 292 293 294 295 292 291 289 287 278 282 282 280 284 287 289 291 293 295 294 295 295 296 297 298 299 300 301 302 301 307 315 316 317 317 317 318 318 318 318 320 322
288 289 290 293 290 293 293 287 279 278 279 275 281 281 282 288 290 290 292 293 293 295 295 296 297 298 298 298 300 301 301 299 300 301 302 304 309 314 316 317 317 317 318 318
280 277 289 292 290 288 289 287 277 270 273 275 282 279 283 289 292 293 293 294 294 294 294 296 297 295 295 296 296 297 298 297 297 297 298 299 300 301 303 304 305 310 316 320
279 279 287 290 292 292 287 285 287 279 277 276 278 281 286 289 290 291 291 292 294 294 293 296 294 293 293 293 293 293 294 294 294 294 295 297 298 298 298 300 301 302 304 306
285 280 285 288 291 291 288 290 283 284 271 269 275 278 281 286 288 288 290 291 291 291 294 294 293 292 292 291 291 292 292 292 292 293 294 295 296 296 297 299 299 300 301 303
287 284 283 288 285 285 286 285 285 284 280 274 271 276 284 286 287 289 290 291 290 293 294 292 291 291 291 290 289 289 290 290 291 292 293 293 293 293 294 295 295 296 298 298
288 284 279 283 287 290 290 286 285 279 275 278 278 279 286 288 289 290 290 291 290 294 294 291 290 290 290 289 288 288 288 289 289 290 291 290 291 291 291 291 292 293 294 296
289 284 275 277 282 285 284 287 289 287 282 278 276 279 288 287 288 290 291 292 291 293 290 290 290 289 289 288 287 287 287 287 288 288 288 288 288 289 289 290 291 292 292 294
294 284 281 277 278 283 283 285 287 287 282 282 282 283 287 287 287 289 292 292 292 292 291 290 289 289 288 288 286 286 286 286 286 287 287 286 287 288 289 290 290 291 292 292
290 282 281 283 282 284 283 284 285 284 286 281 284 284 288 290 289 290 293 292 292 292 291 290 290 288 287 287 286 285 285 285 285 285 285 285 286 288 289 289 290 290 291 291
287 278 280 274 283 283 281 283 283 285 286 285 286 285 292 292 290 290 291 291 292 294 294 291 290 289 287 286 285 284 284 284 284 284 284 285 285 287 287 289 289 289 290 290
285 284 280 278 281 279 278 281 284 284 285 287 282 288 292 291 289 291 292 290 291 292 294 291 291 289 286 285 284 283 283 284 283 284 283 283 283 284 285 286 288 288 289 290
282 276 278 275 272 272 282 285 287 285 286 288 288 290 292 292 293 292 292 293 293 293 293 292 289 286 284 283 282 282 283 283 283 281 281 281 280 281 283 284 285 286 287 288
287 283 272 275 277 279 282 282 282 282 283 288 287 289 291 293 288 290 292 294 295 296 295 292 287 284 282 281 281 282 282 280 280 279 279 279 279 279 280 281 282 283 285 286
284 286 282 272 275 272 280 286 286 286 280 288 289 289 290 289 284 289 294 292 292 288 285 283 283 281 280 279 281 281 280 278 277 277 277 278 278 278 278 279 280 282 284 284
280 281 278 279 277 278 284 284 286 278 280 288 289 289 290 288 291 292 287 284 283 282 281 280 280 279 278 279 280 279 277 276 276 276 276 276 276 277 278 278 278 280 282 284
278 277 277 279 276 274 285 282 281 287 289 287 285 289 289 290 289 286 284 281 280 280 279 279 277 275 275 277 278 276 275 274 273 273 273 273 274 275 277 275 276 278 281 283
275 280 277 279 279 285 284 286 287 287 288 286 286 287 288 287 286 283 280 278 278 278 278 277 275 273 272 273 273 273 272 271 270 270 270 271 272 274 274 274 275 276 280 281
280 282 280 281 284 285 285 287 287 287 288 290 288 287 287 286 284 280 279 278 277 276 275 275 273 272 270 270 270 270 269 268 266 267 268 270 270 270 271 273 274 275 277 277
279 282 279 279 283 283 286 285 286 287 286 286 285 285 286 285 281 280 278 277 275 274 273 273 272 270 268 268 267 265 265 264 265 266 268 268 268 268 269 270 272 273 275 276
281 281 280 279 284 285 285 287 287 285 286 286 285 282 280 282 280 278 277 275 273 271 270 269 268 267 265 265 264 262 260 260 261 264 265 265 266 266 268 268 269 273 275 277
Wind_Speed
1 4 6 7 4 4 6 4 2 2 4 2 7 6 10 14 7 11 13 9 13 15 16 7 8 9 7 7 7 9 8 10 8 6 7 8 10 9 9 9 12 13 12 13
4 4 6 3 4 4 4 3 2 5 2 3 6 13 18 19 17 17 19 17 15 13 9 10 7 6 7 7 8 7 10 8 10 8 4 4 5 6 7 7 11 13 13 13
5 3 6 5 2 4 4 5 3 5 6 4 7 7 5 4 5 6 12 17 12 11 13 9 6 8 4 7 8 8 9 9 9 10 4 2 1 0 3 7 7 9 12 12
4 3 5 4 3 5 3 2 3 4 4 4 5 10 4 7 9 7 11 7 8 8 7 6 8 6 6 7 5 6 6 6 7 9 9 9 8 7 6 4 5 6 11 12
5 6 6 4 5 7 5 5 5 2 3 5 2 4 7 4 8 11 6 7 7 6 5 7 6 4 3 4 4 3 1 1 2 5 6 6 5 4 2 2 5 7 7 11
4 1 5 7 3 9 5 4 4 2 1 5 7 8 4 5 6 4 2 1 4 6 4 4 4 5 5 5 6 5 8 8 6 3 4 5 6 5 5 3 4 4 5 6
3 3 1 3 6 1 4 7 1 1 3 7 2 4 6 10 7 7 9 10 2 2 3 3 5 6 6 6 6 6 7 9 8 8 8 6 4 3 5 5 5 6 5 5
7 4 11 7 7 9 10 6 6 9 5 4 2 9 7 8 9 6 7 8 4 4 5 4 5 4 5 5 6 6 7 7 8 8 7 6 6 4 3 4 4 4 5 6
6 5 4 3 3 8 5 7 5 5 1 2 5 7 9 11 10 5 7 6 4 7 7 6 4 4 4 5 6 6 6 6 7 7 6 6 6 6 6 6 5 4 6 6
6 2 0 4 3 1 6 7 3 3 4 6 5 6 8 7 7 3 7 5 3 5 6 5 4 3 3 4 4 6 7 7 7 7 7 6 7 7 7 6 8 9 9 9
5 2 2 6 8 11 4 5 4 5 5 5 2 7 7 7 3 6 6 5 6 6 6 6 5 4 4 4 4 5 6 7 7 7 6 7 7 8 7 7 8 8 9 9
7 3 4 7 1 2 8 7 8 5 4 4 2 11 3 6 2 5 6 7 6 8 8 6 5 4 3 4 4 5 5 6 7 6 6 7 7 7 7 7 8 9 9 8
10 5 2 4 3 4 6 10 13 7 3 9 5 9 2 2 5 5 7 7 7 5 6 5 5 4 4 3 3 4 5 5 5 5 6 5 5 6 7 8 8 8 9 9
14 4 8 10 6 5 7 9 18 13 9 19 17 25 14 5 6 6 7 6 4 6 7 6 5 5 4 4 2 3 4 4 4 5 4 5 7 7 7 7 8 9 9 10
10 6 5 7 4 3 4 6 11 17 25 16 22 22 24 17 13 7 9 6 7 9 10 12 9 6 6 5 4 3 3 4 4 4 5 6 6 6 7 8 7 7 9 9
5 5 7 5 10 9 7 3 9 18 20 15 23 24 24 12 6 6 10 10 12 13 12 9 9 9 8 7 5 4 3 3 3 3 3 2 4 5 5 7 7 6 7 8
11 8 5 15 7 4 7 20 18 11 10 15 18 26 22 18 13 14 10 9 13 13 14 10 14 13 8 7 6 5 4 3 3 3 4 5 6 5 6 6 6 7 8 9
9 6 5 8 5 14 18 8 19 22 23 19 17 20 24 26 13 10 11 16 19 18 15 12 8 8 8 6 5 5 4 3 3 3 3 4 5 5 5 5 5 6 6 8
6 6 4 7 9 12 13 7 11 10 20 19 19 24 28 26 3 10 15 21 22 21 17 9 8 9 8 8 6 6 5 4 3 3 4 5 5 6 6 6 8 8 7 7
5 5 6 3 8 12 10 19 9 7 11 13 17 22 23 11 7 17 16 15 14 4 4 7 9 10 9 5 5 6 6 4 3 4 5 5 6 6 7 7 8 8 7 7
5 6 15 15 12 6 14 6 8 8 12 15 14 18 20 16 16 11 4 3 4 4 10 10 10 10 7 5 4 6 5 4 3 4 5 5 6 7 7 8 7 7 8 6
11 9 7 9 9 12 9 4 11 14 12 9 6 13 15 13 11 5 6 7 8 11 10 10 11 9 6 5 5 5 4 3 4 4 4 5 5 5 6 7 7 7 7 7
4 10 8 10 9 8 7 9 9 6 8 8 7 10 9 9 7 6 6 8 8 10 9 8 10 10 6 6 5 5 2 4 4 5 5 5 5 5 6 5 7 6 7 6
4 3 4 3 15 16 6 7 7 5 12 14 7 6 8 6 4 6 7 9 9 8 9 8 9 8 7 4 6 4 3 3 3 3 4 4 5 6 5 5 5 4 5 6
7 6 6 6 13 4 11 8 11 10 7 6 1 3 5 9 8 8 9 10 8 6 7 7 8 7 5 5 5 4 4 4 4 3 3 4 4 5 6 5 5 6 5 6
7 8 6 9 8 6 11 7 6 10 15 11 9 5 3 6 9 8 9 12 13 11 7 7 7 7 6 4 4 4 4 3 2 2 2 3 4 4 4 6 6 9 12 13
Wind_Direction
106 138 194 204 177 137 124 125 155 264 273 255 241 264 271 279 284 277 275 244 251 256 263 253 244 244 237 243 235 230 216 220 193 191 201 221 225 227 229 223 222 215 215 214
81 228 204 148 158 126 125 145 254 268 261 220 273 279 273 267 260 245 253 256 247 249 262 264 259 236 230 244 230 234 225 205 200 200 196 192 190 222 226 222 222 217 217 214
149 220 168 146 128 172 232 237 235 243 323 266 318 277 283 290 270 246 249 254 267 253 261 268 268 261 266 238 239 235 227 210 201 198 165 137 148 241 199 220 224 223 221 217
211 200 146 144 178 149 227 255 265 283 348 261 45 297 297 295 298 267 265 277 274 280 273 269 269 267 256 268 261 244 242 216 205 185 189 191 201 209 222 221 220 217 210 217
226 176 142 156 189 156 207 159 171 205 254 318 157 253 282 306 269 265 305 312 317 290 304 311 299 274 57 29 22 6 36 36 187 179 203 203 220 240 258 223 230 225 217 218
167 290 154 176 140 173 158 105 41 82 111 279 201 178 253 220 216 269 234 206 47 16 18 31 52 75 65 46 52 48 64 46 42 97 185 201 225 245 264 266 256 250 240 233
146 220 182 141 98 157 146 116 91 280 205 238 28 210 245 255 235 236 266 280 354 281 119 89 81 70 56 45 39 51 56 50 37 47 47 41 26 307 279 288 282 278 260 242
155 259 187 189 180 173 182 168 158 198 194 268 64 240 247 226 252 243 258 260 277 219 156 130 104 86 74 57 43 48 55 57 39 41 35 32 27 15 356 352 330 310 298 282
153 256 202 151 146 146 174 198 165 104 61 342 238 285 284 275 285 192 257 271 222 183 171 159 121 86 72 60 48 44 49 51 41 36 29 28 22 15 357 344 336 333 330 330
204 168 18 158 91 357 155 155 163 157 202 244 264 263 233 290 284 347 322 295 199 178 164 140 124 95 59 52 46 41 41 43 30 27 24 20 15 10 1 360 3 358 348 337
158 147 19 128 201 181 151 184 200 169 174 197 270 260 220 244 278 274 302 291 212 188 179 169 157 147 120 84 64 61 48 41 31 21 16 17 13 10 8 11 4 353 338 341
186 139 181 205 299 190 213 191 180 160 230 238 205 252 252 198 124 270 263 290 188 183 190 170 171 153 117 96 67 61 50 45 29 13 22 25 15 11 16 8 1 353 344 342
163 196 127 334 10 346 200 209 213 203 87 218 173 254 315 224 248 257 289 259 224 178 152 186 187 176 144 107 75 61 49 40 30 27 24 21 15 17 20 8 357 355 347 345
167 162 201 216 191 153 199 201 212 203 226 246 235 262 255 253 244 254 268 274 216 197 202 211 209 192 169 150 123 88 71 47 35 38 30 17 5 8 13 8 0 358 357 349
173 209 206 235 233 199 204 200 202 208 230 228 250 250 259 250 245 225 233 219 197 213 216 217 206 193 187 172 156 124 97 61 40 48 35 17 357 2 8 6 353 356 359 354
171 229 170 260 231 222 253 195 227 223 237 249 255 260 262 276 187 224 211 205 217 220 224 218 197 197 192 177 160 152 121 104 86 71 43 7 6 359 357 358 354 349 357 353
174 199 186 251 212 99 250 236 238 231 218 225 237 248 274 272 216 224 219 213 227 233 233 212 207 201 166 169 160 159 144 116 83 48 18 9 356 346 336 318 322 342 351 343
160 160 153 244 72 239 241 215 218 225 235 234 247 264 261 259 274 211 217 227 239 242 242 225 185 156 156 149 148 141 133 121 99 62 26 6 351 329 315 316 326 328 333 333
173 160 219 218 241 257 316 265 205 187 248 242 236 245 254 265 135 256 217 222 230 233 236 214 158 144 140 148 148 138 130 119 106 49 10 354 343 325 331 342 339 336 330 325
206 219 207 188 242 254 211 244 184 139 245 250 218 237 251 251 241 261 261 213 228 141 123 128 122 115 122 133 140 134 132 113 66 19 350 336 329 331 338 336 333 327 317 320
174 203 225 235 243 250 257 187 125 168 245 240 225 223 238 235 226 255 100 89 102 117 121 112 107 109 104 111 121 119 121 94 46 6 341 335 343 339 333 333 323 319 322 308
174 173 200 220 225 251 194 95 188 223 244 252 208 224 237 239 247 190 166 146 132 124 116 115 112 105 94 88 116 121 106 59 26 356 333 343 338 333 339 329 320 321 310 320
214 194 195 176 206 235 197 215 233 197 213 229 210 231 217 244 219 177 150 133 131 126 120 113 118 112 91 85 82 112 78 31 2 342 338 330 327 333 336 322 329 330 326 321
256 178 218 230 252 253 246 256 259 262 244 254 248 198 165 219 216 145 137 139 131 127 124 125 124 125 117 89 81 81 57 26 352 328 330 331 330 332 328 327 321 306 314 313
203 152 198 263 269 342 272 233 244 259 245 242 268 251 203 158 183 165 148 139 130 120 123 122 125 117 102 89 83 47 41 25 354 329 321 330 330 321 321 318 306 304 289 283
174 203 196 241 235 209 259 259 258 237 243 220 187 173 160 190 161 144 165 151 139 145 132 113 109 117 116 103 85 52 35 34 355 322 342 334 323 321 324 320 310 311 307 314